010  
ASUS41 KLWX 190211  
RWRLWX  
 
REGIONAL WEATHER ROUNDUP  
NATIONAL WEATHER SERVICE BALTIMORE MD/WASHINGTON DC  
1000 PM EDT MON JUN 18 2018  
 
NOTE: "FAIR" INDICATES FEW OR NO CLOUDS BELOW 12,000 FEET  
WITH NO SIGNIFICANT WEATHER AND/OR S TO VISIBILITY
.  
TC=TEMPERATURE CELSIUS  
 
* =NON NWS SITE. STATION DOES NOT REPORT PRECIPITATION (E.G. RAIN,  
SNOW, ETC.), THUNDER, OR FOG.
 
 
DCZ001-MDZ009-015-VAZ040>042-051-053>054-190300-  
WASHINGTON METRO  
 
CITY SKY/WX TMP DP RH WIND PRES REMARKS
 
WASHINGTON NAT MOCLDY 83 75 77 S9 29.89R HX 90  
DULLES MOCLDY 82 74 76 S8 29.90R  
ANDREWS AFB FAIR 83 73 71 SW9 29.89R  
FT BELVOIR FAIR 84 74 72 CALM 29.90R HX 91  
QUANTICO FAIR 85 72 65 W7 29.91R HX 91  
COLLEGE PARK* FAIR 85 74 70 S3 29.89R HX 93  
LEESBURG* FAIR 84 77 79 SW5 29.92R HX 94  
MANASSAS* FAIR 82 72 71 S5 29.92R  
GAITHERSBURG* FAIR 85 75 72 SW5 29.92R HX 93  
 

 
 
MDZ006>007-011-014-190300-  
BALTIMORE METRO  
 
CITY SKY/WX TMP DP RH WIND PRES REMARKS
 
BWI AIRPORT FAIR 85 74 69 SW6 29.87S HX 92  
MD SCIENCE CTR N/A 88 74 63 MISG 29.87R HX 96  
MARTIN STATE CLEAR 82 79 89 S5 29.88S HX 93  
ANNAPOLIS FAIR 82 77 84 SE3 29.88R HX 90  
FORT MEADE* FAIR 77 73 88 CALM 29.91R  
 

 
 
MDZ012-015-019>023-190300-  
MARYLAND EASTERN SHORE  
 
CITY SKY/WX TMP DP RH WIND PRES REMARKS
 
OCEAN CITY FAIR 76 65 68 SW6 29.92R  
SALISBURY FAIR 77 69 76 S3 29.91R  
BAY BRIDGE AP* FAIR 81 73 78 S7 29.89R  
CAMBRIDGE* PTCLDY 79 73 83 CALM 29.90R  
EASTON* CLEAR 81 72 74 SW5 29.94R  
 

 
 
MDZ017>025-190300-  
SOUTHERN MARYLAND  
 
CITY SKY/WX TMP DP RH WIND PRES REMARKS
 
PATUXENT RIVER FAIR 85 75 72 SW8 29.90R HX 93  
ST INIGOES FAIR 82 77 84 S7 29.90R HX 90  
LEONARDTOWN* FAIR 81 73 78 SW5 29.93R  
 

 
 
MDZ003>005-190300-  
NORTH CENTRAL MARYLAND  
 
CITY SKY/WX TMP DP RH WIND PRES REMARKS
 
FREDERICK* FAIR 82 72 69 S6 29.91R  
HAGERSTOWN APT FAIR 86 71 60 SW5 29.90R HX 91  
WESTMINSTER* FAIR 82 75 78 SW7 29.91R  
 

 
 
MDZ501>502-190300-  
WESTERN MARYLAND  
 
CITY SKY/WX TMP DP RH WIND PRES REMARKS
 
OAKLAND* FAIR 72 68 88 W9 30.07S  
CUMBERLAND* FAIR 86 68 54 W5 29.96R  
 

 
 
VAZ025>031-190300-  
SHENANDOAH VALLEY  
 
CITY SKY/WX TMP DP RH WIND PRES REMARKS
 
WINCHESTER* FAIR 81 68 65 SW5 29.94R  
FRONT ROYAL* FAIR 79 75 89 S6 29.93R  
LURAY* FAIR 79 72 78 CALM 29.96R  
NEW MARKET* FAIR 76 74 95 CALM 29.95R  
STAUNTON* FAIR 75 72 89 CALM 30.01R  
WAYNESBORO* FAIR 81 71 73 W3 30.00R  
 

 
 
WVZ021-048>050-054>055-190300-  
EASTERN WEST VIRGINIA PANHANDLE  
 
CITY SKY/WX TMP DP RH WIND PRES REMARKS
 
MARTINSBURG FAIR 84 69 60 SW6 29.90R  
PETERSBURG* FAIR 77 69 74 CALM 29.97R  
 

 
 
VAZ036>039-050-190300-  
CENTRAL FOOTHILLS  
 
CITY SKY/WX TMP DP RH WIND PRES REMARKS
 
CHARLOTTESVILL FAIR 76 73 91 CALM 29.94S  
CULPEPER* FAIR 80 69 69 SW3 29.93R  
ORANGE* FAIR 75 70 83 SW3 29.93R  
GORDONSVILLE* FAIR 75 75 98 CALM 29.93R  
WARRENTON* FAIR 81 69 67 CALM 29.92R  
 

 
 
VAZ055>057-190300-  
NORTH AND CENTRAL PIEDMONT  
 
CITY SKY/WX TMP DP RH WIND PRES REMARKS
 
FREDERICKSBRG* FAIR 83 72 70 SW3 29.91R  
STAFFORD* FAIR 82 72 72 CALM 29.96R  
 

 
 
NCZ024-NYZ072-PAZ021-071-VAZ022-071-190300-  
OTHER REGIONAL OBSERVATIONS  
 
CITY SKY/WX TMP DP RH WIND PRES REMARKS
 
NEW YORK CITY FAIR 76 74 93 VRB6 29.85R  
PHILADELPHIA MOCLDY 85 72 65 W12 29.87R HX 91  
PITTSBURGH MOCLDY 83 70 64 SW9 29.92F  
ROANOKE FAIR 83 68 60 W7 30.02R  
RICHMOND FAIR 82 73 74 S6 29.93R  
RALEIGH FAIR 82 75 79 CALM 29.98S  
 

 
 
ANZ530>537-190300-  
MARINE OBSERVATIONS  
 
STATION/POSITION TIME TEMP WIND PRES
 
AIR SEA DIR/SP/G  
(UTC) (F) (DEG/KT/KT) (MB)  
THOMAS PT LIGHT 0200 78 76 180/ 10/ 10 1013.0R  
BALT KEY BRIDGE 0148 84 200/ 8/ 9 1011.1S  
COVE POINT 0148 83 220/ 12/ 13 1013.1R  
LEWISETTA 0148 82 81 230/ 8/ 9 1012.8R  
SOLOMONS ISLAND 0148 82 78 220/ 8/ 9 1012.4R  
PINEY POINT 0136 220/ 6/ 7 N/A  
 

 
 
 
 
CLICK HERE TO GO TO PREVIOUS BULLETINS.

The Nexlab VA Page
The Nexlab MD Page
The Nexlab WV Page Main Text Page